Погода Баяндай

Хотите узнать прогноз погоды Баяндай? Тогда Вам сюда: Погода Баяндай

Поиск расширенной информации на нашем сайте:

Полезная информация:

Новости сайта



02.01.2020
Опубликован Долгосрочный прогноз погоды по городам России и ближнего зарубежья на январь 2020 года.
Карты: Прогноз на январь и февраль 2020 года, Сравнение прогнозируемой аномалии приземной температуры воздуха на январь 2020 года по разным моделям.




Погода Баяндай - сегодня

Время (UTC), дата Ветер
(°,м/с) 
Видим.   Явления Облачность Т
(°С)
Тd
(°С)
f(%) Тe
(°С)
Pmin
(гПа)
dP
(гПа)
Po
(мм)
O2
(г/м3)
Тmin Tmax R s Состояние
почвы
21 23.11.20 040 (СВ) н/о  {ливн. осадки}  ясно 
-7.1 -10.2 78 -7  1033.3  1.2  703  292           
00 24.11.20 тихо ()   н/о  {ливн. осадки}  9/0 средняя, верхняя 
[Ac lent|Ci fib]
-8.8 -11.9 78 -9  1035.6  1.5  705  294  -9.2    0.0  равномерный
сухой снег
100% 
03 24.11.20 010 (С) 20000 м    10/0 средняя 
[As op]
-7.4 -12.8 65 -9  1036.6  1.4  706  293           
06 24.11.20 010 (С) 20000 м  {снег}  9/4 1000 м средняя 
[Cu hum|Ac lent]
-6.8 -13.7 58 -9  1036.3  706  293           
09 24.11.20 360 (С) 20000 м    9/0 средняя, верхняя 
[Ac lent|Ci fib]
-8.1 -14.3 61 -8  1037.9  706  294           
12 24.11.20 350 (С) н/о    9/9 1000 м 
[Sc]
-9.9 -14.8 67 -12  1039.7  707  297    -6.4  0.0     
15 24.11.20 310 (СЗ) н/о    9/8 1000 м верхняя 
[Sc|Ci fib]
-10.3 -15.4 66 -12  1040.7  0.7  708  298           
18 24.11.20 080 (В) н/о    9/5 1000 м верхняя 
[Sc|Ci fib]
-14.8 -17.4 81 -17  1043.1  0.6  708  303           
21 24.11.20 010 (С) н/о    3/0 верхняя 
[Ci fib]
-14 -15.7 87 -14  1043  0.2  708  302           
00 25.11.20 020 (С) н/о    ясно 
-14.2 -16.2 85 -14  1043  -0.1  708  302  -15.3      равномерный
сухой снег
100% 
03 25.11.20 тихо ()   20000 м    4/0 верхняя 
[Ci fib]
-11 -14.9 73 -11  1042.6  0.8  709  299           
06 25.11.20 040 (СВ) 20000 м    4/0 средняя, верхняя 
[Ac lent|Ci fib]
-11.4 -15.8 70 -15  1042.1  -0.6  708  299           
09 25.11.20 020 (С) 20000 м    8/0 средняя 
[Ac trans]
-12.3 -16.4 71 -14  1042.7  0.2  708  300           
12 25.11.20 020 (С) н/о    4/0 верхняя 
[Ci fib]
-13.1 -16.9 73 -15  1043.8  0.7  709  301    -10.1       
15 25.11.20 010 (С) н/о    1/0 верхняя 
[Ci fib]
-15.5 -17.6 84 -20  1045.1  0.3  709  304           
18 25.11.20 010 (С) н/о    3/0 верхняя 
[Ci fib]
-16.9 -18.5 87 -21  1045.7  0.1  709  306           
21 25.11.20 020 (С) н/о    3/0 верхняя 
[Ci fib]
-18.3 -20 86 -22  1046.4  0.1  709  308           
00 26.11.20 030 (СВ) н/о    10/0 средняя 
[As op]
-18.6 -20.5 85 -21  1047.2  710  308  -18.7      равномерный
сухой снег
100% 
03 26.11.20 020 (С) 20000 м    1/0 верхняя 
[Ci fib]
-17.7 -19.9 83 -20  1047.9  0.9  710  308  -19.2         
06 26.11.20 040 (СВ) 20000 м    ясно 
-15.4 -17.9 81 -15  1046.7  -0.1  710  305           
09 26.11.20 010 (С) 20000 м    ясно 
-16.2 -18.5 82 -16  1047.7  0.6  711  306           
12 26.11.20 тихо ()   н/о    3/0 верхняя 
[Ci fib]
-16.5 -18.6 84 -17  1048.8  0.8  711  306    -14.5       
15 26.11.20 тихо ()   н/о    3/0 верхняя 
[Ci fib]
-17.8 -19.6 86 -18  1049.7  0.4  712  308           
18 26.11.20 020 (С) н/о    ясно 
-19.1 -21.1 84 -22  1050.6  0.3  712  310           
21 26.11.20 020 (С) н/о    ясно 
-20.6 -23 81 -23  1051.1  -0.2  712  312           
Время (UTC), дата Ветер
(°,м/с) 
Видим.   Явления Облачность Т
(°С)
Тd
(°С)
f(%) Тe
(°С)
Pmin
(гПа)
dP
(гПа)
Po
(мм)
O2
(г/м3)
Тmin Tmax R s Состояние
почвы

Для получения пояснительной информации подведите курсор к названию столбца.

ПОГОДА Баяндай - архив

Всё, что Вы хотите узнать о погоде Баяндай - удобно и подробно!

Выберите нужную дату (начиная с 1 января 2019* года) и нажмите кнопку "Найти".
Будут отображены архивные сводки погоды по пункту Баяндай, начиная с указанной даты.


Отображать данные в формате CSV (для использования в таблицах Excel)


Внимание! Наш архив погоды предназначен исключительно для личного некоммерческого использования в познавательных целях. Если Вам необходимы официальные справки о состоянии погоды (для производственных, юридических, коммерческих и т.п. целей), обращайтесь в органы Росгидромета.

*Примечание: данная дата относится к архиву по метеостанциям СССР (Россия, СНГ, Балтия).
Архив по метеостанциям Зарубежной Европы и Азии (кроме Китая) хранится 10 дней, по другим регионам земного шара (Китай, Африка, Америка, Австралия, Океания) - 1 день.

Баяндай - район местоположения метеостанции


Название, широта, долгота, высота метеостанции:
Баяндай 53.1°ш. 105.5°д. 762 м над ур. моря [Российская Федерация]

Дополнительная информация

В oтличие oт бoльшинства пoгoдных сайтoв мы публикуем пoдрoбную метеoинфoрмацию в детальнoм прoфессиoнальнoм фoрмате.

Характеристики температуры и влажнoсти вoздуха измеряются на высoте 2 м в тени вдали oт зданий и деревьев.
Скoрoсть ветра измеряется на высoте 10 м (на урoвне рoста челoвека скoрoсть ветра ниже в 1.5-2 раза). Если метеoстанция нахoдится в гoрoде или в лесу, тo скoрoсть ветра занижена на 2-4 м/с пo сравнению с oткрытым местoм. Скoрoсть ветра над акватoриями крупных рек и oзёр, а также на вершинах хoлмoв на 2-5 м/с выше, чем в oбычных услoвиях.
Атмoсфернoе давление в разных тoчках местнoсти мoжет значительнo oтличаться oт давления на метеoстанции, в зависимoсти oт услoвий рельефа (при пoдъёме на 10 м давление пoнижается примернo на 1 мм рт.ст.).